Regional Weather Roundup
Issued by NWS

Home | Current Version | Previous Version | Text Only | Print | Product List | Glossary Off
Versions: 1 2 3 4 5 6 7 8 9 10 11 12 13 14 15 16 17 18 19 20 21 22 23 24 25 26 27 28 29 30 31 32 33 34 35 36 37 38 39 40 41 42 43 44 45 46 47 48 49 50

000
ASUS43 KMPX 232010
RWRMN
WEATHER ROUNDUP FOR MINNESOTA
NATIONAL WEATHER SERVICE TWIN CITIES/CHANHASSEN MN
300 PM CDT MON MAY 23 2016


NOTE: "FAIR" INDICATES FEW OR NO CLOUDS BELOW 12,000 FEET WITH NO
SIGNIFICANT WEATHER AND/OR OBSTRUCTIONS TO VISIBILITY. N/A MEANS
CURRENT SKY AND/OR WEATHER CONDITIONS ARE NOT AVAILABLE.

MNZ060>063-068>070-232100-
   Twin Cities Metro

CITY           SKY/WX    TMP DP  RH WIND       PRES   REMARKS
TWIN CITIES    CLOUDY    81  59  47 S17G26    29.75S
ST PAUL        CLOUDY    80  60  50 SW18G26   29.75R
CRYSTAL        CLOUDY    80  58  46 S15       29.73F
BLAINE         CLOUDY    82  61  47 S14G25    29.74F
EDEN PRAIRIE   PTSUNNY   80  59  48 S24G31    29.74F
SOUTH ST PAUL  CLOUDY    81  58  46 S18G28    29.75S
LAKE ELMO      CLOUDY    79  61  53 S15G28    29.76S
$$
MNZ001>005-007-008-013>017-022>024-027-028-232100-
   Northwest Minnesota

CITY           SKY/WX    TMP DP  RH WIND       PRES   REMARKS
BEMIDJI        MOSUNNY   77  54  43 W14       29.69R
HALLOCK        SUNNY     79  46  31 W18       29.62S
ROSEAU         MOSUNNY   79  52  38 W10G17    29.63S
WARROAD        PTSUNNY   77  55  47 W9        29.63S
THIEF RVR FALL PTSUNNY   73  54  49 W7        29.68S
CROOKSTON      MOSUNNY   79  54  41 W7        29.67R
FOSSTON        MOSUNNY   75  54  46 W13       29.70R
DETROIT LAKES  MOSUNNY   79  46  31 W6        29.71S
MOORHEAD       SUNNY     81  45  28 SW8       29.68R
PARK RAPIDS    CLOUDY    80  54  40 S13G21    29.70R
MAHNOMEN       FAIR      75  54  47 W9        29.70R
$$
MNZ006-009>011-018-025>026-232100-
   North Central Minnesota

CITY           SKY/WX    TMP DP  RH WIND       PRES   REMARKS
BAUDETTE       MOSUNNY   78  52  40 W12       29.64R
FLAG ISLAND    MOSUNNY   72  54  53 NW3       29.62S
INTL FALLS     CLOUDY    69  62  78 SE6       29.66R
WASKISH        CLOUDY    73  59  60 SW9       29.67S
BIG FORK       CLOUDY    75  61  60 SW15      29.68F
LONGVILLE      CLOUDY    77  59  53 S10G16    29.72R
GRAND RAPIDS     N/A    N/A N/A N/A MISG        N/A
CRANE LAKE     CLOUDY    72  55  56 SW12G17   29.69R
ORR            CLOUDY    73  54  49 S13G18    29.66S
COOK           CLOUDY    72  55  56 SW9       29.70S
WALKER         FAIR      76  58  53 S8        29.70R
$$
MNZ012-019>021-037-232100-
   Northeast Minnesota

CITY           SKY/WX    TMP DP  RH WIND       PRES   REMARKS
DULUTH         PTSUNNY   76  55  48 SW17G24   29.74R
ELY            CLOUDY    75  54  46 SW12      29.70S
HIBBING        CLOUDY    72  56  57 SW8G18    29.72R
EVELETH        PTSUNNY   72  54  53 SW12G20   29.73R
DULUTH HARBOR  PTSUNNY   79  57  47 SW18G25   29.72R
TWO HARBORS      N/A     82  61  47 SW13G32   29.70S
SILVER BAY     PTSUNNY   81  54  39 S21       29.70R
GRAND MARAIS     N/A     60  42  51 E3        29.70F
G MARAIS ARPRT CLOUDY    73  48  40 S15G30    29.74F
$$
MNZ029>031-032-039>041-046>048-054>057-064-232100-
   West Central Minnesota

CITY           SKY/WX    TMP DP  RH WIND       PRES   REMARKS
FERGUS FALLS   PTSUNNY   77  50  38 W6        29.66S
WHEATON        CLOUDY    82  54  36 SW5       29.71F
MORRIS         MOSUNNY   79  57  47 SW12      29.71S
ALEXANDRIA     LGT RAIN  75  57  53 W7        29.75S
ELBOW LAKE     FAIR      77  55  47 W5        29.72S
WADENA         MOSUNNY   77  55  47 SW7G16    29.72S
GLENWOOD       MOSUNNY   79  59  50 SW13G20   29.75S
APPLETON       CLOUDY    79  57  47 S9        29.72F
BENSON         MOSUNNY   79  57  47 W15       29.72F
ORTONVILLE     PTSUNNY   75  55  50 SW6       29.72S
MADISON        CLOUDY    77  55  47 W10       29.72F
WILLMAR        FAIR      75  61  60 SW17      29.75F
$$
MNZ033>034-036-042>043-049>051-058-059-232100-
   Central Minnesota

CITY           SKY/WX    TMP DP  RH WIND       PRES   REMARKS
ST CLOUD       CLOUDY    75  58  55 SW12      29.76S
SAUK CENTRE    CLOUDY    72  63  73 S10       29.75S
PAYNESVILLE    CLOUDY    73  60  61 SW12      29.77S
AITKIN         CLOUDY    73  55  53 SW12      29.74R
PINE RIVER     CLOUDY    75  57  53 S9        29.76S
BRAINERD       CLOUDY    73  59  61 SW13      29.75R
STAPLES        CLOUDY    75  55  50 W5        29.74R
LONG PRAIRIE   PTSUNNY   73  61  64 S12       29.75F
LITTLE FALLS   CLOUDY    72  57  60 S7        29.76S
LITCHFIELD     CLOUDY    75  63  64 SW6       29.76S
BUFFALO        CLOUDY    79  57  47 S6        29.76S
MAPLE LAKE     CLOUDY    79  61  54 SW3       29.76F
HUTCHINSON     PTSUNNY   79  58  49 SW7G18    29.76F
$$
MNZ037-044-045-052-053-232100-
   East Central Minnesota

CITY           SKY/WX    TMP DP  RH WIND       PRES   REMARKS
PRINCETON      PTSUNNY   81  61  50 S9        29.76F
MORA           MOSUNNY   75  55  50 SW14      29.77S
CAMBRIDGE        N/A     81  63  54 SW9       29.74S
RUSH CITY      CLOUDY    78  59  52 S12       29.75F
MOOSE LAKE     CLOUDY    73  55  53 SW12G22   29.74R
HINCKLEY       CLOUDY    77  59  53 SW13      29.76S
CLOQUET        CLOUDY    73  54  49 SW13G18   29.75R
MCGREGOR       CLOUDY    72  57  60 SW15G21   29.76R
$$
MNZ071>073-080-081-089-090-097-098-232100-
   Southwest Minnesota

CITY           SKY/WX    TMP DP  RH WIND       PRES   REMARKS
MONTEVIDEO     CLOUDY    77  61  57 W7        29.75S
GRANITE FALLS  CLOUDY    76  63  63 SW14      29.76S
CANBY          CLOUDY    78  62  57 SW9       29.74F
MARSHALL       PTSUNNY   72  62  71 W17       29.74F
REDWOOD FALLS  CLOUDY    81  59  47 S12G22    29.73F
OLIVIA         CLOUDY    68  55  64 W10       29.74F
PIPESTONE      CLOUDY    70  64  83 SW8       29.76F
WINDOM         CLOUDY    79  63  57 CALM      29.76S
WORTHINGTON    MOSUNNY   74  64  71 S14       29.77S
JACKSON        PTSUNNY   77  61  57 SW17G23   29.79R
SLAYTON        LGT RAIN  71  66  83 SW14      29.77S
$$
MNZ065>067-074>077-082>085-091>093-232100-
   South Central Minnesota

CITY           SKY/WX    TMP DP  RH WIND       PRES   REMARKS
MANKATO        CLOUDY    73  57  56 S18G32    29.78S
NEW ULM        CLOUDY    79  61  53 S21       29.74S
ST JAMES       CLOUDY    72  57  60 S17       29.77S
FAIRMONT       CLOUDY    73  63  68 S21       29.78R
GLENCOE        PTSUNNY   81  63  54 S7        29.74F
FARIBAULT      CLOUDY    75  61  60 S14G21    29.79R
OWATONNA       DRIZZLE   73  61  64 S14G22    29.79R
WASECA         CLOUDY    72  59  64 S25G31    29.81R
ALBERT LEA     LGT RAIN  72  61  68 S15       29.81R
$$
MNZ078>079-086>088-094>096-232100-
   Southeast Minnesota

CITY           SKY/WX    TMP DP  RH WIND       PRES   REMARKS
ROCHESTER      CLOUDY    82  57  42 S29G36    29.80F
RED WING       CLOUDY    81  55  41 S17G32    29.75S
STANTON        LGT RAIN  74  61  63 SW13G25   29.75F
DODGE CENTER   CLOUDY    79  57  47 S25G33    29.80F
WINONA         CLOUDY    86  52  30 S7G23     29.80F
AUSTIN         CLOUDY    75  57  53 S17G24    29.75F
PRESTON        PTSUNNY   80  56  42 S14       29.84S
$$
ABBREVIATIONS USED IN REMARKS
   TC - TEMPERATURES IN CELSIUS
  WCI - WIND CHILL INDEX
   HX - HEAT INDEX
  VSB - VISIBILITY
$$



USA.gov is the U.S. government's official web portal to all federal, state and local government web resources and services.